Starlink 35768

operational
NORAD ID: 66832 Int'l Des: 2025-280 Owner: SPXS Country: US Constellation: starlink
LEOCIRCULAR

About Starlink 35768

Description loading...

Live Position

Loading 3D Globe...

Upcoming Passes

Altitude History

Altitude vs Time

uPlot chart will show altitude changes over time

Two-Line Element Set

1 66832U 25280M 26013.67500908 .00001326 00000-0 11887-3 0 9999
2 66832 70.0005 113.2328 0002897 282.4124 77.6711 14.98331899 7830
Epoch: Jan 13, 2026 • Age: 24 hours

Current Status

Altitude 581.4 km
Velocity 7.57 km/s
Sub-Earth Point -30.15°S, 103.09°E
Launch Date Dec 2, 2025
Age 0.1 years
Type internet

Technical Details

Classification Payload
Mass 575.00 kg
Dry Mass 530.00 kg
Total Mass 575.00 kg
Length 0.30 m
Diameter 4.10 m
Span 29.00 m
Shape Box + pan
Manufacturer SPXS
Bus Type Starlink V2MO
Phase Status In Orbit
Owner/State SPXS/US

Large Constellations

Loading constellations...